Location: Newark
(43.0000°N, 1.6781°W)
Time: 19:11:30
(UTC+00:00)

deb Explorer IX - Visible Passes

Search period start: 19 April 2021 00:00
Search period end: 29 April 2021 00:00
Orbit: 540 x 1099 km, 38.8° (Epoch: 19 April)

Date Brightness Start Highest point End Pass type
(mag) Time Alt. Az. Time Alt. Az. Time Alt. Az.
24 Apr ? 04:21:48 10° S 04:23:52 14° SSE 04:25:57 10° ESE visible
25 Apr ? 03:58:09 10° S 04:00:14 14° SSE 04:02:19 10° ESE visible
26 Apr ? 03:35:01 12° S 03:36:36 14° SSE 03:38:42 10° ESE visible
27 Apr ? 03:12:27 14° SSE 03:12:57 14° SSE 03:15:07 10° ESE visible
28 Apr ? 02:49:51 14° SE 02:49:51 14° SE 02:51:34 10° ESE visible
28 Apr ? 04:31:33 10° SW 04:35:21 36° SSE 04:39:07 10° E visible
